Location: Newark
(25.7507°S, 31.4676°E)
Time: 00:59:23
(UTC+00:00)

Hubble Space Telescope - Pass Details

Date: 23 January 2020
Orbit: 536 x 540 km, 28.5° (Epoch: 20 February)

Event Time Altitude Azimuth Distance (km) Brightness Sun altitude
Exits shadow 01:51:17 10° 16° (NNE) 1,758 3.2 -18.9°
Drops below altitude 10° 01:51:26 10° 18° (NNE) 1,798 3.3 -18.9°
Sets 01:54:09 0° 36° (NE) 2,665 4.4 -18.4°
